This is the latest recevied weather packets stored in our database for station/object HK6RM-17. If no packets are shown the sender has not sent any weather packets the latest 10 day(s).
| Time | Temp. | Humidity | Pressure | Rain* | Wind** | Luminosity | Snow |
|---|---|---|---|---|---|---|---|
| 1787436040 | 14.44° C | 72% | 1014 hPa | 0 mm | - | - | - |
| 1787435440 | 14.44° C | 72% | 1014 hPa | 0 mm | - | - | - |
| 1787434840 | 14.44° C | 73% | 1014 hPa | 0 mm | - | - | - |
| 1787434239 | 14.44° C | 72% | 1014 hPa | 0 mm | - | - | - |
| 1787433639 | 15° C | 72% | 1014 hPa | 0 mm | - | - | - |
| 1787433038 | 15° C | 71% | 1014 hPa | 0 mm | - | - | - |
| 1787432438 | 14.44° C | 71% | 1014 hPa | 0 mm | - | - | - |
| 1787431837 | 14.44° C | 71% | 1014 hPa | 0 mm | - | - | - |
| 1787431237 | 15° C | 71% | 1014 hPa | 0 mm | - | - | - |
| 1787430636 | 15° C | 71% | 1014 hPa | 0 mm | - | - | - |
| 1787430036 | 15° C | 70% | 1014 hPa | 0 mm | - | - | - |
| 1787429435 | 15.56° C | 70% | 1014 hPa | 0 mm | - | - | - |
| 1787428234 | 16.11° C | 70% | 1014 hPa | 0.25 mm | - | - | - |
| 1787427634 | 17.22° C | 69% | 1014 hPa | 0 mm | - | - | - |
| 1787427033 | 17.78° C | 69% | 1014 hPa | 0.25 mm | - | - | - |
| 1787426433 | 16.11° C | 70% | 1014 hPa | 0 mm | - | - | - |
| 1787425833 | 16.11° C | 70% | 1014 hPa | 0 mm | - | - | - |
| 1787425232 | 16.67° C | 70% | 1014 hPa | 0 mm | - | - | - |
| 1787424632 | 17.22° C | 70% | 1014 hPa | 0.51 mm | - | - | - |
| 1787424031 | 17.78° C | 69% | 1014 hPa | 0 mm | - | - | - |
| 1787423431 | 17.78° C | 70% | 1014 hPa | 0.51 mm | - | - | - |
| 1787422830 | 17.22° C | 71% | 1014 hPa | 0 mm | - | - | - |
| 1787422230 | 17.78° C | 71% | 1014 hPa | 0.25 mm | - | - | - |
| 1787421629 | 17.78° C | 71% | 1014 hPa | 0 mm | - | - | - |
| 1787421029 | 18.33° C | 71% | 1014 hPa | 0.76 mm | - | - | - |
* Rain latest hour (hover to see other rain measurements)
** Current wind speed in m/s (hover to see current wind gust speed)